Flag for USA

Past Weather in Albany, New York, USA — Yesterday and Last 2 Weeks

Now
65 °F

Scattered clouds.


Feels Like: 65 °F
Forecast: 66 / 55 °F
Wind: 17 mph from West

Location: Albany County Airport
Current Time: Sep 30, 2020 at 4:05:24 pm
Latest Report: Sep 30, 2020 at 2:51 pm
Visibility: 10 mi
Pressure29.67 "Hg
Humidity: 49%
Dew Point: 45 °F
Location of AlbanyLocation

Past Weather in Albany — Graph

°F

Albany Temperature Yesterday

Maximum temperature yesterday: 71 °F (at 12:51 pm)
Minimum temperature yesterday: 54 °F (at 10:22 pm)
Average temperature yesterday: 62 °F

High & Low Weather Summary for the Past Weeks

 TemperatureHumidityPressure
High77 °F (Sep 25, 3:51 pm)100% (Sep 16, 4:51 am)30.66 "Hg (Sep 16, 4:51 am)
Low32 °F (Sep 22, 4:31 am)33% (Sep 20, 1:51 pm)29.47 "Hg (Sep 30, 4:09 am)
Average57 °F81%30.06 "Hg
* Reported Sep 15 1:51 pm — Sep 30 1:51 pm, Albany. Weather by CustomWeather, © 2020

Note: Actual official high and low records may vary slightly from our data, if they occured in-between our weather recording intervals... More about our weather records

Albany Weather History for the Previous 24 Hours

Scroll right to see more
 ConditionsComfort  
Time TempWeatherWind HumidityBarometerVisibility
1:51 pm
Wed, Sep 30
64 °FPartly sunny.13 mph54%29.65 "Hg10 mi
12:51 pm61 °FPartly sunny.10 mph60%29.67 "Hg10 mi
11:51 am59 °FScattered clouds.10 mph75%29.65 "Hg10 mi
10:51 am56 °FPartly sunny.10 mph87%29.63 "Hg10 mi
9:51 am53 °FPartly sunny.5 mph100%29.59 "Hg10 mi
9:21 am53 °FPartly sunny.6 mph100%29.58 "Hg10 mi
8:51 am52 °FLight rain. Fog.8 mph100%29.57 "Hg3 mi
7:51 am51 °FLight rain. Fog.6 mph100%29.51 "Hg10 mi
6:51 am51 °FLight rain. Overcast.7 mph100%29.48 "Hg8 mi
5:51 am52 °FLight rain. Fog.5 mph100%29.49 "Hg4 mi
5:35 am52 °FLight rain. Fog.12 mph100%29.49 "Hg4 mi
4:51 am52 °FRain. Fog.14 mph100%29.49 "Hg3 mi
4:34 am52 °FHeavy rain. Fog.15 mph100%29.49 "Hg1 mi
4:09 am53 °FRain. Fog.6 mph100%29.47 "Hg1 mi
3:20 am54 °FLight rain. Fog.8 mph100%29.49 "Hg3 mi
2:51 am54 °FRain. Fog.13 mph100%29.50 "Hg2 mi
2:36 am54 °FLight rain. Fog.12 mph100%29.53 "Hg4 mi
2:13 am54 °FLight rain. Fog.3 mph100%29.53 "Hg2 mi
1:56 am54 °FLight rain. Fog.No wind100%29.55 "Hg2 mi
1:39 am54 °FLight rain. Fog.3 mph100%29.56 "Hg4 mi
1:20 am54 °FRain. Fog.5 mph100%29.57 "Hg2 mi
1:13 am54 °FRain. Fog.5 mph100%29.59 "Hg3 mi
12:58 am54 °FRain. Fog.5 mph100%29.61 "Hg3 mi
12:21 am54 °FLight rain. Fog.7 mph100%29.65 "Hg4 mi
12:13 am54 °FRain. Fog.7 mph100%29.66 "Hg2 mi
11:51 pm
Tue, Sep 29
54 °FRain. Fog.6 mph100%29.67 "Hg3 mi
11:20 pm54 °FRain. Fog.8 mph100%29.71 "Hg2 mi
11:12 pm55 °FRain. Fog.9 mph100%29.71 "Hg1 mi
10:51 pm55 °FLight rain. Fog.5 mph100%29.71 "Hg5 mi
10:38 pm55 °FLight rain. Fog.5 mph100%29.73 "Hg10 mi
10:22 pm54 °FLight rain. Fog.No wind100%29.74 "Hg4 mi
9:58 pm55 °FRain. Fog.5 mph100%29.76 "Hg2 mi
9:29 pm55 °FLight rain. Fog.3 mph100%29.77 "Hg2 mi
9:19 pm56 °FLight rain. Fog.No wind100%29.78 "Hg2 mi
8:51 pm58 °FLight rain. Overcast.3 mph90%29.79 "Hg10 mi
7:51 pm58 °FMostly cloudy.6 mph84%29.81 "Hg10 mi
7:36 pm58 °FOvercast.3 mph84%29.81 "Hg10 mi
6:51 pm59 °FOvercast.7 mph81%29.83 "Hg10 mi
5:51 pm60 °FMostly cloudy.3 mph78%29.84 "Hg10 mi
4:51 pm61 °FMostly cloudy.8 mph78%29.83 "Hg10 mi
Weather by CustomWeather, © 2020

See weather overview